This is the latest recevied weather packets stored in our database for station/object ED5YAL-15. If no packets are shown the sender has not sent any weather packets the latest 10 day(s).
| Time | Temp. | Humidity | Pressure | Rain* | Wind** | Luminosity | Snow |
|---|---|---|---|---|---|---|---|
| 1778068013 | 16.11° C | 49% | 1015.2 hPa | - | - | - | - |
| 1778067113 | 16.11° C | 49% | 1015.2 hPa | - | - | - | - |
| 1778066212 | 16.67° C | 49% | 1015.2 hPa | - | - | - | - |
| 1778065311 | 17.78° C | 48% | 1015.2 hPa | - | - | - | - |
| 1778064418 | 20.56° C | 48% | 1015.2 hPa | - | - | - | - |
| 1778063512 | 20.56° C | 47% | 1015.3 hPa | - | - | - | - |
| 1778062611 | 21.11° C | 47% | 1015.1 hPa | - | - | - | - |
| 1778061709 | 22.22° C | 48% | 1015.2 hPa | - | - | - | - |
| 1778060806 | 21.67° C | 47% | 1015.3 hPa | - | - | - | - |
| 1778059902 | 22.78° C | 47% | 1015.2 hPa | - | - | - | - |
| 1778059001 | 22.22° C | 47% | 1015 hPa | - | - | - | - |
| 1778058138 | 20.56° C | 48% | 1015 hPa | - | - | - | - |
| 1778058102 | 20.56° C | 48% | 1015 hPa | - | - | - | - |
| 1778057197 | 20° C | 47% | 1014.9 hPa | - | - | - | - |
| 1778056457 | 21.11° C | 48% | 1014.9 hPa | - | - | - | - |
| 1778056296 | 21.11° C | 48% | 1014.9 hPa | - | - | - | - |
| 1778055396 | 20.56° C | 49% | 1014.7 hPa | - | - | - | - |
| 1778054513 | 15° C | 48% | 1014.8 hPa | - | - | - | - |
| 1778053612 | 15.56° C | 49% | 1014.7 hPa | - | - | - | - |
| 1778052744 | 15.56° C | 48% | 1014.7 hPa | - | - | - | - |
| 1778052712 | 15.56° C | 48% | 1014.7 hPa | - | - | - | - |
| 1778051813 | 17.22° C | 48% | 1014.7 hPa | - | - | - | - |
| 1778050910 | 17.22° C | 48% | 1014.8 hPa | - | - | - | - |
| 1778050009 | 16.11° C | 48% | 1014.9 hPa | - | - | - | - |
| 1778049111 | 13.89° C | 49% | 1015 hPa | - | - | - | - |
* Rain since midnight (hover to see other rain measurements)
** Current wind speed in m/s (hover to see current wind gust speed)